Sacramento / Mc Clellan, CA

10:31 PM PDT on May 28, 2017 (GMT -0700)
McClellan

Weather History for KMCC - October, 2012

Change the Weather History Date:

Monday, October 8, 2012

  Actual Average (KMHR) Record (KMHR)
Temperature  
Mean Temperature 64 °F -  
Max Temperature 75 °F 77 °F 98 °F (1996)
Min Temperature 53 °F 49 °F 44 °F (2007)
Degree Days  
Heating Degree Days 1    
Growing Degree Days 14 (Base 50)    
Moisture  
Dew Point 47 °F    
Average Humidity 59    
Maximum Humidity 82    
Minimum Humidity 33    
Precipitation  
Precipitation 0.00 in - - ()
Sea Level Pressure  
Sea Level Pressure 29.99 in    
Wind  
Wind Speed 9 mph ()    
Max Wind Speed 14 mph    
Max Gust Speed 18 mph    
Visibility 10.0 miles    
Events      
Averages and records for this station are not official NWS values.
T = Trace of Precipitation, MM = Missing Value Source: Averaged Metar Reports

Daily Weather History Graph

Daily Weather History Graph

Search for Another Location

Airport or City:

Trip Planner

Search our weather history database for the weather conditions in past years. The results will help you decide how hot, cold, wet, or windy it might be!

Date:

Astronomy

Oct. 08, 2012 Rise Set
Actual Time 7:08 AM PDT 6:36 PM PDT
Civil Twilight 6:41 AM PDT 7:03 PM PDT
Nautical Twilight 6:11 AM PDT 7:33 PM PDT
Astronomical Twilight 5:40 AM PDT 8:04 PM PDT
Moon No Moon Rise 2:25 PM PDT (10/8)
Length of Visible Light 12h 21m
Length of Day
11h 28m
Last Quarter, 45% of the Moon is Illuminated
Oct 8
Last Quarter
Oct 15
New
Oct 21
First Quarter
Oct 29
Full
Nov 6
Last Quarter

Hourly Weather History & Observations

Time (PDT) Temp. Dew Point Humidity Pressure Visibility Wind Dir Wind Speed Gust Speed Precip Events Conditions
12:10 AM 57.2 °F 46.4 °F 67% 29.98 in 10.0 mi SE 9.2 mph - N/A   Clear
12:30 AM 57.2 °F 46.4 °F 67% 29.97 in 10.0 mi SE 10.4 mph - N/A   Clear
12:50 AM 57.2 °F 48.2 °F 72% 29.98 in 10.0 mi SE 11.5 mph - N/A   Clear
1:10 AM 57.2 °F 48.2 °F 72% 29.98 in 10.0 mi SE 11.5 mph - N/A   Clear
1:30 AM 57.2 °F 48.2 °F 72% 29.98 in 10.0 mi SE 12.7 mph - N/A   Clear
1:50 AM 57.2 °F 48.2 °F 72% 29.98 in 10.0 mi SE 11.5 mph - N/A   Clear
2:10 AM 57.2 °F 48.2 °F 72% 29.99 in 10.0 mi SE 10.4 mph - N/A   Clear
2:30 AM 57.2 °F 48.2 °F 72% 29.99 in 10.0 mi SE 11.5 mph - N/A   Clear
2:50 AM 57.2 °F 48.2 °F 72% 29.99 in 10.0 mi SE 11.5 mph - N/A   Clear
3:10 AM 55.4 °F 48.2 °F 77% 29.98 in 10.0 mi SE 10.4 mph - N/A   Clear
3:30 AM 55.4 °F 48.2 °F 77% 29.98 in 10.0 mi SE 11.5 mph - N/A   Clear
3:50 AM 57.2 °F 48.2 °F 72% 29.98 in 10.0 mi SE 11.5 mph - N/A   Clear
4:10 AM 55.4 °F 48.2 °F 77% 29.98 in 10.0 mi SE 11.5 mph - N/A   Clear
4:30 AM 55.4 °F 48.2 °F 77% 29.98 in 10.0 mi SE 9.2 mph - N/A   Clear
4:50 AM 55.4 °F 48.2 °F 77% 29.98 in 10.0 mi SE 9.2 mph - N/A   Clear
5:10 AM 55.4 °F 48.2 °F 77% 29.98 in 10.0 mi SE 10.4 mph - N/A   Clear
5:30 AM 55.4 °F 48.2 °F 77% 29.99 in 10.0 mi SE 9.2 mph - N/A   Clear
5:50 AM 55.4 °F 48.2 °F 77% 29.99 in 10.0 mi SE 10.4 mph - N/A   Clear
6:10 AM 55.4 °F 48.2 °F 77% 29.99 in 10.0 mi SE 10.4 mph - N/A   Clear
6:30 AM 55.4 °F 48.2 °F 77% 29.99 in 10.0 mi SE 9.2 mph - N/A   Clear
6:50 AM 53.6 °F 48.2 °F 82% 29.99 in 10.0 mi SSE 10.4 mph - N/A   Clear
7:10 AM 53.6 °F 48.2 °F 82% 30.00 in 10.0 mi SE 9.2 mph - N/A   Clear
7:30 AM 53.6 °F 48.2 °F 82% 30.00 in 10.0 mi SE 9.2 mph - N/A   Clear
7:50 AM 55.4 °F 48.2 °F 77% 30.01 in 10.0 mi SE 10.4 mph - N/A   Clear
8:10 AM 55.4 °F 48.2 °F 77% 30.01 in 10.0 mi SE 9.2 mph - N/A   Clear
8:30 AM 57.2 °F 48.2 °F 72% 30.01 in 10.0 mi SSE 9.2 mph - N/A   Clear
8:50 AM 59.0 °F 48.2 °F 67% 30.01 in 10.0 mi SE 9.2 mph - N/A   Clear
9:10 AM 59.0 °F 48.2 °F 67% 30.02 in 10.0 mi SSE 10.4 mph - N/A   Clear
9:30 AM 60.8 °F 48.2 °F 63% 30.02 in 10.0 mi SSE 9.2 mph - N/A   Clear
9:50 AM 62.6 °F 48.2 °F 59% 30.03 in 9.0 mi South 11.5 mph 16.1 mph N/A   Clear
10:10 AM 62.6 °F 48.2 °F 59% 30.03 in 10.0 mi SSE 10.4 mph - N/A   Clear
10:30 AM 64.4 °F 48.2 °F 56% 30.03 in 10.0 mi SSE 9.2 mph - N/A   Clear
10:50 AM 64.4 °F 48.2 °F 56% 30.02 in 10.0 mi SSE 11.5 mph - N/A   Clear
11:10 AM 66.2 °F 48.2 °F 52% 30.03 in 10.0 mi SSE 8.1 mph - N/A   Clear
11:30 AM 66.2 °F 48.2 °F 52% 30.03 in 10.0 mi South 6.9 mph - N/A   Clear
11:50 AM 68.0 °F 48.2 °F 49% 30.02 in 10.0 mi South 5.8 mph - N/A   Clear
12:10 PM 68.0 °F 44.6 °F 43% 30.02 in 9.0 mi South 6.9 mph - N/A   Clear
12:30 PM 69.8 °F 46.4 °F 43% 30.02 in 10.0 mi SSW 8.1 mph - N/A   Clear
12:50 PM 71.6 °F 44.6 °F 38% 30.01 in 10.0 mi SSE 6.9 mph - N/A   Clear
1:10 PM 71.6 °F 46.4 °F 41% 30.01 in 10.0 mi SSE 4.6 mph - N/A   Clear
1:30 PM 71.6 °F 44.6 °F 38% 30.00 in 10.0 mi SSW 4.6 mph - N/A   Clear
1:50 PM 73.4 °F 42.8 °F 33% - 10.0 mi North - - N/A   Clear
2:10 PM 73.4 °F 42.8 °F 33% 29.99 in 10.0 mi SSW 5.8 mph 17.3 mph N/A   Clear
2:30 PM 73.4 °F 42.8 °F 33% 29.98 in 10.0 mi SSW 9.2 mph - N/A   Clear
2:50 PM 73.4 °F 44.6 °F 36% 29.98 in 10.0 mi South 3.5 mph - N/A   Clear
3:10 PM 73.4 °F 44.6 °F 36% 29.97 in 10.0 mi SSW 9.2 mph - N/A   Clear
3:30 PM 73.4 °F 44.6 °F 36% 29.97 in 10.0 mi SSW 4.6 mph - N/A   Clear
3:50 PM 73.4 °F 44.6 °F 36% 29.97 in 10.0 mi Calm Calm - N/A   Clear
4:10 PM 73.4 °F 44.6 °F 36% 29.97 in 10.0 mi SSE 4.6 mph - N/A   Clear
4:30 PM 75.2 °F 46.4 °F 36% 29.96 in 10.0 mi SSW 9.2 mph - N/A   Clear
4:50 PM 73.4 °F 44.6 °F 36% 29.97 in 10.0 mi South 10.4 mph - N/A   Clear
5:10 PM 73.4 °F 46.4 °F 38% 29.97 in 10.0 mi SSW 9.2 mph - N/A   Clear
5:30 PM 73.4 °F 46.4 °F 38% 29.96 in 10.0 mi South 8.1 mph - N/A   Clear
5:50 PM 71.6 °F 48.2 °F 43% 29.96 in 9.0 mi South 13.8 mph 18.4 mph N/A   Clear
6:10 PM 71.6 °F 48.2 °F 43% 29.96 in 10.0 mi SSW 11.5 mph - N/A   Clear
6:30 PM 69.8 °F 48.2 °F 46% 29.96 in 10.0 mi SSW 11.5 mph 17.3 mph N/A   Clear
6:50 PM 68.0 °F 48.2 °F 49% 29.97 in 10.0 mi SSW 9.2 mph - N/A   Clear
7:10 PM 68.0 °F 48.2 °F 49% 29.98 in 10.0 mi SSW 10.4 mph - N/A   Clear
7:30 PM 66.2 °F 48.2 °F 52% 29.98 in 10.0 mi SSW 12.7 mph - N/A   Clear
7:50 PM 66.2 °F 46.4 °F 49% 29.99 in 10.0 mi SSW 10.4 mph - N/A   Clear
8:10 PM 64.4 °F 48.2 °F 56% 29.99 in 10.0 mi South 6.9 mph - N/A   Clear
8:30 PM 64.4 °F 48.2 °F 56% 29.99 in 10.0 mi SSW 6.9 mph - N/A   Clear
8:50 PM 62.6 °F 48.2 °F 59% 29.99 in 10.0 mi South 6.9 mph - N/A   Clear
9:10 PM 62.6 °F 48.2 °F 59% 29.99 in 10.0 mi SSE 6.9 mph - N/A   Clear
9:30 PM 59.0 °F 46.4 °F 63% 30.00 in 10.0 mi SSE 6.9 mph - N/A   Clear
9:50 PM 59.0 °F 48.2 °F 67% 30.01 in 10.0 mi SSE 6.9 mph - N/A   Clear
10:10 PM 60.8 °F 48.2 °F 63% 30.01 in 10.0 mi South 8.1 mph - N/A   Clear
10:30 PM 59.0 °F 48.2 °F 67% 30.01 in 10.0 mi ESE 4.6 mph - N/A   Clear
10:50 PM 59.0 °F 48.2 °F 67% 30.02 in 10.0 mi SE 8.1 mph - N/A   Clear
11:10 PM 59.0 °F 48.2 °F 67% 30.02 in 10.0 mi SE 8.1 mph - N/A   Clear
11:30 PM 57.2 °F 48.2 °F 72% 30.02 in 10.0 mi SE 9.2 mph - N/A   Clear
11:50 PM 57.2 °F 48.2 °F 72% 30.02 in 10.0 mi ESE 8.1 mph - N/A   Clear